Вернуться в каталог

EXPLORER 36

GEOS 2

АктивенНаукаLEO
NORAD 3093·PAYLOAD·🇺🇸 United States

Запущен Jan 11, 1968 с Vandenberg Space Force Base

Loading…

Ближайшие Пролёты (ближайшие 24 часа)

TLE

СвежийSource: Space-Track

Эпоха: Sep 14, 2026, 14:42 UTC

1 03093U 68002A   26257.61254280 -.00000084  00000-0 -25049-4 0  9999
2 03093 105.7780 185.3934 0319427 320.4751 215.7685 12.83608304748835

Отслеживайте EXPLORER 36 в реальном времени с AllMySat

Download on the App Store